Location: Castelbiague
(43.0361°N, 0.9246°E)
Time: 16:19:42
(UTC+00:00)

Cosmos 1626 - Pass Details

Date: 27 October 2021
Orbit: 487 x 492 km, 82.5° (Epoch: 30 November)

Event Time Altitude Azimuth Distance (km) Brightness Sun altitude
Exits shadow 04:12:12 18° 10° (N) 1,260 4.3 -24.7°
Drops below altitude 10° 04:13:16 10° 10° (N) 1,697 5.0 -24.6°
Sets 04:15:23 0° 9° (N) 2,584 5.9 -24.2°
